[[{"header":{"parameterUnit":"m.s-1","parameterCategory":1,"la1":30.2991,"la2":30.254,"lo1":-89.0895,"lo2":-89.0444,"dy":0.0017,"dx":0.0017,"nx":28,"ny":28,"refTime":"2023-09-05T03:00:00:Z","depth":0,"parameterNumber":2,"parameterNumberName":"U-component_of_WINDS"},"data":[0,0,0,0,0,0,0,0,0,0,0,0,0,0,0,0,0,0,0,0,0,0,0,0,0,0,0,0,0,0,0,0,0,0,0,0,0,0,0,0,0,0,0,0,0,0,0,0,0,0,0,0,0,0,0,0,0,0,-3.8501,-3.8502,0,-3.8627,-3.8629,-3.863,-3.8622,-3.862,-3.8618,-3.8616,-3.8745,-3.875,-3.8755,0,0,0,0,0,0,0,0,0,0,0,0,0,-3.8251,-3.8255,-3.8501,-3.8502,-3.8504,-3.8627,-3.8629,-3.863,-3.8622,-3.862,-3.8618,-3.8616,-3.8743,-3.875,-3.8756,0,0,0,0,0,0,0,0,0,0,0,0,0,-3.8367,-3.8257,-3.85,-3.8515,-3.8517,-3.8627,-3.8629,-3.8631,-3.8623,-3.862,-3.8617,-3.8615,-3.8741,-3.8749,-3.8757,-3.886,0,0,-3.878,-3.8784,0,0,0,0,0,0,0,0,-3.836,-3.8376,-3.8511,-3.8514,-3.8517,-3.8606,-3.8588,-3.8708,-3.8623,-3.8583,-3.8616,-3.8613,-3.8701,-3.8712,-3.8742,-3.8866,-3.8871,-3.8781,-3.8786,-3.8789,-3.8791,0,0,0,0,0,0,0,-3.8352,-3.837,-3.8551,-3.8513,-3.8517,-3.8514,-3.8528,-3.8611,-3.8656,-3.8586,-3.8586,-3.8601,-3.8702,-3.8734,-3.8745,-3.8873,-3.8781,-3.8788,-3.8792,-3.8795,-3.9087,-3.909,0,0,0,0,0,0,-3.8341,-3.8364,-3.8547,-3.8554,-3.843,-3.8521,-3.8536,-3.858,-3.8655,-3.8664,-3.8603,-3.86,-3.8722,-3.8736,-3.8749,-3.8874,-3.8789,-3.8796,-3.8801,-3.9084,-3.9088,-3.9091,0,0,0,0,0,0,-3.8336,-3.8357,-3.8542,-3.8459,-3.8482,-3.8528,-3.8578,-3.8584,-3.8616,-3.8668,-3.8676,-3.8628,-3.8721,-3.8738,-3.8832,-3.8878,-3.88,-3.8807,-3.9081,-3.9085,-3.909,-3.9124,0,0,0,0,0,0,-3.8328,-3.8355,-3.8395,-3.846,-3.8487,-3.8623,-3.8581,-3.8589,-3.863,-3.8627,-3.8693,-3.8701,-3.872,-3.8821,-3.884,-3.8887,-3.8813,-3.9077,-3.9083,-3.9088,-3.9119,-3.9129,-3.9138,0,0,0,0,0,-3.832,-3.84,-3.8398,-3.842,-3.8538,-3.8626,-3.8641,-3.8661,-3.8634,-3.8674,-3.8707,-3.8699,-3.887,-3.883,-3.8852,-3.8902,-3.9074,-3.9081,-3.9088,-3.9115,-3.9127,-3.9138,0,0,0,0,0,0,-3.834,-3.8409,-3.8407,-3.8511,-3.8562,-3.8624,-3.8675,-3.8674,-3.8734,-3.8729,-3.8751,-3.8766,-3.886,-3.8891,-3.8845,-3.9006,-3.8968,-3.898,-3.8982,-3.8994,-3.9003,-3.8993,-3.8819,0,0,0,0,0,-3.8356,-3.8422,-3.8479,-3.8565,-3.8591,-3.8629,-3.8668,-3.8679,-3.8733,-3.8755,-3.8795,-3.8847,-3.8913,-3.8956,-3.9019,-3.9124,-3.9138,-3.917,-3.9179,-3.9187,-3.9196,-3.9252,-3.9267,-3.9114,-3.9114,-3.9114,0,0,-3.8391,-3.8437,-3.8477,-3.8571,-3.8612,-3.8679,-3.8647,-3.872,-3.8769,-3.8766,-3.8856,-3.8888,-3.8948,-3.9048,-3.9094,-3.9076,-3.9241,-3.9196,-3.9201,-3.9206,-3.9261,-3.9275,-3.9288,-3.9119,-3.9118,-3.9118,0,0,-3.8488,-3.8531,-3.8606,-3.8648,-3.8711,-3.8735,-3.8754,-3.8816,-3.8836,-3.8928,-3.8926,-3.8986,-3.9099,-3.9141,-3.9177,-3.9291,-3.9285,-3.9311,-3.936,-3.9415,-3.9427,-3.9437,-3.9476,-3.949,-3.932,-3.932,-3.932,0,-3.8523,-3.8624,-3.8645,-3.8718,-3.8758,-3.8759,-3.8835,-3.8875,-3.8955,-3.8983,-3.8963,-3.9104,-3.9144,-3.9253,-3.928,-3.9311,-3.9331,-3.9302,-3.9423,-3.9434,-3.9445,-3.9482,-3.9496,-3.9323,-3.9322,-3.9322,-3.9322,0,-3.8664,-3.8734,-3.8787,-3.8864,-3.8911,-3.8986,-3.9017,-3.9062,-3.9069,-3.9096,-3.9188,-3.9237,-3.931,-3.9337,-3.9345,-3.9447,-3.9434,-3.9419,-3.9381,-3.9461,-3.9496,-3.9511,-3.9326,-3.9325,-3.9325,-3.9324,0,0,-3.8776,-3.8864,-3.8883,-3.8917,-3.8987,-3.9041,-3.9115,-3.9186,-3.9223,-3.9279,-3.9341,-3.9436,-3.9422,-3.9463,-3.9476,-3.9525,-3.9609,-3.9503,-3.9505,-3.9519,-3.9722,-3.9732,-3.9748,-3.9607,-3.961,-3.9612,-3.9717,0,-3.8879,-3.901,-3.903,-3.9145,-3.9209,-3.9211,-3.9275,-3.9324,-3.9351,-3.9409,-3.9439,-3.9505,-3.9483,-3.9508,-3.9556,-3.9589,-3.965,-3.9582,-3.9663,-3.9666,-3.9646,-3.9767,-3.9777,-3.9874,-3.9731,-3.9733,-3.9735,0,-3.9016,-3.9074,-3.9195,-3.9255,-3.9283,-3.934,-3.9406,-3.9462,-3.9518,-3.9534,-3.958,-3.9587,-3.9663,-3.9624,-3.9728,-3.9682,-3.9717,-3.9738,-3.9742,-3.9749,-3.9703,-3.9775,-3.9905,-3.9919,-3.9757,-3.9755,-3.9754,0,-3.9083,-3.9193,-3.9279,-3.9309,-3.9381,-3.9421,-3.9453,-3.9506,-3.9547,-3.9605,-3.9631,-3.9698,-3.9734,-3.9785,-3.9809,-3.9779,-3.9911,-3.9875,-3.9925,-3.9925,-3.9952,-3.9949,-4.0087,-3.9978,-3.9977,-3.9977,-3.9977,0,-3.9194,-3.9268,-3.931,-3.9362,-3.9445,-3.9468,-3.9549,-3.9579,-3.9626,-3.9685,-3.9691,-3.9745,-3.9775,-3.9834,-3.9854,-3.9936,-3.9953,-3.9967,-3.9971,-3.9966,-3.9964,-3.9987,-3.9981,-3.9981,-3.998,-3.9979,-3.9979,0,-3.9283,-3.9314,-3.9408,-3.9468,-3.9485,-3.9543,-3.9594,-3.9645,-3.9672,-3.9746,-3.9765,-3.9806,-3.9876,-3.9906,-3.9992,-4.0005,-4.0099,-4.0099,-4.008,-4.0081,-4.0129,-4.0123,-4.0286,-4.0307,-4.0185,-4.0186,-4.0187,0,-3.9351,-3.9407,-3.9474,-3.9513,-3.9546,-3.961,-3.9652,-3.9677,-3.972,-3.9787,-3.983,-3.99,-3.9956,-4.0067,-4.0105,-4.0171,-4.0171,-4.0224,-4.0181,-4.0173,-4.017,-4.0165,-4.017,-4.0231,-4.0232,-4.0233,-4.0234,0,-3.9468,-3.948,-3.954,-3.9605,-3.9655,-3.9708,-3.9759,-3.9791,-3.9824,-3.9872,-3.9943,-3.9987,-4.0075,-4.0143,-4.0211,-4.0244,-4.0244,-4.0247,-4.0262,-4.0256,-4.0241,-4.0248,-4.0099,-4.0243,-4.0242,-4.0241,-4.0241,-4.024,-3.9547,-3.9597,-3.9651,-3.9717,-3.9758,-3.9806,-3.9856,-3.9889,-3.9949,-4.0022,-4.0033,-4.0109,-4.0162,-4.0253,-4.0288,-4.0347,-4.0334,-4.0356,-4.0361,-4.0366,-4.0368,-4.0234,-4.036,-4.036,-4.036,-4.0359,-4.0359,0,-3.9663,-3.9697,-3.9758,-3.9829,-3.9881,-3.9878,-3.9934,-3.9978,-4.0044,-4.0094,-4.015,-4.0231,-4.0297,-4.034,-4.0407,-4.0446,-4.0448,-4.0463,-4.0459,-4.0466,-4.0377,-4.0356,-4.046,-4.046,-4.046,-4.046,-4.046,-4.046,-3.9729,-3.9812,-3.9831,-3.9934,-3.9968,-4.0042,-4.0074,-4.0118,-4.0158,-4.0248,-4.0303,-4.0331,-4.0378,-4.0448,-4.0509,-4.052,-4.0543,-4.0559,-4.0569,-4.0484,-4.0473,-4.0463,-4.0443,-4.0564,-4.0564,-4.0653,-4.0654,-4.0654]},{"header":{"parameterUnit":"m.s-1","parameterCategory":1,"la1":30.2991,"la2":30.254,"lo1":-89.0895,"lo2":-89.0444,"dy":0.0017,"dx":0.0017,"nx":28,"ny":28,"refTime":"2023-09-05T03:00:00:Z","depth":0,"parameterNumber":3,"parameterNumberName":"V-component_of_WINDS"},"data":[0,0,0,0,0,0,0,0,0,0,0,0,0,0,0,0,0,0,0,0,0,0,0,0,0,0,0,0,0,0,0,0,0,0,0,0,0,0,0,0,0,0,0,0,0,0,0,0,0,0,0,0,0,0,0,0,0,0,4.2934,4.2934,0,4.2957,4.2958,4.2958,4.2889,4.2887,4.2885,4.2883,4.2904,4.2906,4.2909,0,0,0,0,0,0,0,0,0,0,0,0,0,4.2826,4.2828,4.2934,4.2934,4.2934,4.2957,4.2958,4.2958,4.2889,4.2887,4.2884,4.2882,4.2903,4.2906,4.2909,0,0,0,0,0,0,0,0,0,0,0,0,0,4.2863,4.2829,4.2934,4.2903,4.29,4.2957,4.2958,4.2958,4.289,4.2887,4.2884,4.2881,4.2902,4.2906,4.291,4.2996,0,0,4.2921,4.2923,0,0,0,0,0,0,0,0,4.2861,4.2867,4.2907,4.2905,4.2902,4.2917,4.2927,4.2971,4.2891,4.2894,4.2883,4.2879,4.2911,4.2914,4.2925,4.2997,4.2998,4.2921,4.2924,4.2925,4.2926,0,0,0,0,0,0,0,4.2859,4.2866,4.2943,4.2908,4.2905,4.2887,4.2889,4.2935,4.292,4.2893,4.2888,4.2892,4.2909,4.2921,4.2925,4.2998,4.2921,4.2925,4.2927,4.2928,4.3141,4.3144,0,0,0,0,0,0,4.2861,4.2864,4.2942,4.2944,4.2874,4.2891,4.2893,4.2915,4.2919,4.2916,4.2895,4.2889,4.2916,4.292,4.2925,4.3025,4.2925,4.2929,4.2931,4.3138,4.3142,4.3145,0,0,0,0,0,0,4.2859,4.2868,4.2941,4.2903,4.2911,4.2897,4.2922,4.2918,4.293,4.292,4.2917,4.2911,4.2914,4.292,4.2979,4.3025,4.2931,4.2934,4.3134,4.3139,4.3143,4.3226,0,0,0,0,0,0,4.2856,4.2868,4.2901,4.2904,4.2913,4.2996,4.2925,4.292,4.2937,4.293,4.2934,4.2932,4.2912,4.2974,4.2983,4.3028,4.2937,4.3129,4.3136,4.3142,4.3219,4.3234,4.3246,0,0,0,0,0,4.2852,4.2924,4.2903,4.2913,4.2955,4.2998,4.3003,4.298,4.2941,4.2974,4.2968,4.2932,4.3019,4.298,4.299,4.3037,4.3126,4.3134,4.3141,4.3213,4.3231,4.3246,0,0,0,0,0,0,4.2926,4.2923,4.2901,4.2976,4.2988,4.2987,4.3027,4.2999,4.3022,4.3014,4.2983,4.2984,4.3048,4.3049,4.3006,4.312,4.3066,4.3076,4.3117,4.3134,4.3147,4.3144,4.294,0,0,0,0,0,4.2951,4.2988,4.2983,4.3049,4.3057,4.3041,4.3059,4.3041,4.3051,4.3056,4.3054,4.3065,4.3094,4.3115,4.3141,4.322,4.3219,4.3258,4.3271,4.3282,4.329,4.3329,4.3346,4.317,4.317,4.317,0,0,4.3002,4.3006,4.3031,4.3064,4.3071,4.3109,4.3046,4.3088,4.3115,4.3062,4.3117,4.3116,4.3126,4.3195,4.3225,4.3198,4.3339,4.3291,4.33,4.3302,4.3339,4.3356,4.337,4.3175,4.3174,4.3174,0,0,4.3115,4.3123,4.3177,4.3186,4.3198,4.3188,4.3201,4.3205,4.3202,4.3257,4.3218,4.3249,4.3301,4.331,4.3321,4.3438,4.3405,4.3447,4.3515,4.3554,4.3568,4.358,4.362,4.3634,4.3456,4.3456,4.3456,0,4.3177,4.3233,4.3209,4.3254,4.3269,4.3224,4.3278,4.3288,4.3308,4.3319,4.3288,4.3352,4.3356,4.3425,4.3454,4.3465,4.3478,4.3445,4.3568,4.358,4.3591,4.3628,4.3643,4.3461,4.3461,4.346,4.346,0,4.3308,4.3347,4.339,4.3411,4.3431,4.3481,4.3463,4.3486,4.3466,4.3458,4.3514,4.3518,4.3544,4.356,4.354,4.3626,4.3608,4.3574,4.3518,4.3613,4.3647,4.3662,4.3468,4.3466,4.3465,4.3464,0,0,4.3465,4.3473,4.3489,4.3498,4.3508,4.3537,4.3585,4.3611,4.363,4.3646,4.3684,4.3729,4.3697,4.371,4.3691,4.3726,4.3816,4.3687,4.3687,4.3709,4.3908,4.3932,4.3949,4.3795,4.3798,4.38,4.3906,0,4.3575,4.3656,4.3636,4.3716,4.3751,4.3709,4.375,4.376,4.3755,4.3782,4.3776,4.3808,4.3764,4.3772,4.3805,4.3798,4.3855,4.379,4.3827,4.3829,4.3824,4.3967,4.3993,4.4093,4.392,4.3922,4.3924,0,4.3712,4.3734,4.3818,4.3822,4.3835,4.3873,4.3895,4.3923,4.3933,4.3926,4.3941,4.3915,4.396,4.3907,4.3967,4.3924,4.3938,4.3938,4.3941,4.3941,4.388,4.3969,4.4125,4.4139,4.3945,4.3943,4.3942,0,4.3816,4.3866,4.3922,4.3931,4.3938,4.3965,4.3968,4.3976,4.3993,4.4012,4.4022,4.4047,4.406,4.4079,4.406,4.4022,4.4123,4.4067,4.4117,4.4117,4.4137,4.4136,4.4295,4.4151,4.4151,4.4151,4.4151,0,4.3938,4.3991,4.3969,4.4003,4.406,4.4037,4.4093,4.4092,4.4099,4.4131,4.4098,4.4128,4.4103,4.4131,4.4117,4.4168,4.4175,4.4169,4.4164,4.4171,4.4171,4.4178,4.4169,4.4155,4.4154,4.4153,4.4152,0,4.4063,4.4051,4.4109,4.411,4.4112,4.4154,4.4154,4.4186,4.4178,4.4219,4.4228,4.4215,4.4247,4.4231,4.4264,4.4254,4.432,4.4307,4.4316,4.4312,4.4361,4.4356,4.4527,4.4548,4.4394,4.4395,4.4397,0,4.414,4.418,4.4186,4.4206,4.4212,4.4244,4.4261,4.424,4.4259,4.4274,4.4303,4.4332,4.4353,4.4406,4.4399,4.4423,4.4409,4.4468,4.4412,4.4417,4.4407,4.4404,4.4407,4.4478,4.448,4.4481,4.4482,0,4.4279,4.4271,4.4297,4.4322,4.4344,4.4362,4.4377,4.4395,4.4374,4.4397,4.4429,4.4446,4.448,4.4508,4.4529,4.4532,4.4503,4.45,4.4512,4.4518,4.4521,4.4518,4.4344,4.4496,4.4494,4.4493,4.4493,4.4492,4.438,4.4413,4.4422,4.4453,4.4462,4.4477,4.4506,4.4502,4.4529,4.4555,4.4541,4.4578,4.4586,4.4612,4.4619,4.4647,4.4623,4.4641,4.4645,4.465,4.4655,4.4519,4.4651,4.465,4.465,4.465,4.4649,0,4.4515,4.4519,4.4548,4.457,4.4594,4.4567,4.4582,4.4603,4.4636,4.4647,4.467,4.4706,4.4734,4.473,4.4754,4.4777,4.4765,4.4784,4.4781,4.4782,4.4676,4.4662,4.4794,4.4794,4.4794,4.4794,4.4794,4.4794,4.4588,4.464,4.4634,4.469,4.4694,4.473,4.4741,4.4754,4.4763,4.4805,4.4828,4.4826,4.483,4.4855,4.4878,4.4876,4.4886,4.491,4.4903,4.4804,4.4789,4.4776,4.4762,4.4913,4.4913,4.5006,4.5007,4.5008]}]]